Temperature
20 17 17 18 18 19 19 19 19 19 19 18 18 17 17 17 17 17 18 18 18 19 19 19 18 18 18 17 17 17 17 17 16 16 16 16 16 15 15 15 15 15 15 14
17 18 19 19 19 19 19 19 19 19 19 19 18 17 17 17 17 18 18 18 18 19 18 18 18 18 18 18 17 17 17 17 16 16 16 16 16 15 15 15 15 15 14 14
19 19 20 19 19 19 19 19 19 19 18 18 18 17 17 17 17 18 18 18 18 18 19 19 18 18 18 18 17 17 17 17 16 16 16 16 15 15 15 15 15 14 14 14
18 19 20 19 19 19 19 19 19 19 18 16 18 16 17 16 16 16 17 17 18 18 19 19 19 18 18 18 18 17 17 16 16 16 16 16 16 15 15 15 15 14 14 14
18 19 20 20 20 20 19 19 19 18 17 16 16 16 16 16 16 16 16 17 18 19 19 19 19 19 18 18 18 17 17 16 16 16 16 16 15 15 15 15 15 14 14 14
18 19 20 20 20 20 19 18 17 15 15 16 16 16 16 15 16 16 17 18 18 19 19 19 19 18 18 18 18 17 17 17 16 16 16 15 15 15 15 15 15 14 14 14
18 19 19 20 20 19 18 17 16 16 15 15 16 16 16 17 16 16 17 18 18 19 19 19 19 18 18 18 18 17 17 17 16 16 16 15 15 15 15 15 14 14 14 14
18 18 19 19 19 18 18 17 16 16 15 15 16 15 16 17 17 17 18 18 18 19 19 19 18 18 18 18 18 17 17 17 16 16 16 15 15 15 15 14 14 14 14 14
17 17 19 19 19 18 17 16 16 15 15 15 15 15 16 17 17 17 17 18 18 18 19 19 18 18 18 18 18 17 17 17 16 16 16 15 15 15 14 14 14 14 14 13
17 18 18 18 19 18 17 15 14 15 15 15 16 16 16 17 17 16 16 17 18 18 18 19 18 18 18 18 17 17 17 16 16 16 15 15 15 14 14 14 14 14 13 13
17 17 17 18 18 18 17 16 14 13 14 14 15 15 16 16 16 16 16 17 18 18 18 18 18 18 18 17 17 17 17 16 16 15 15 15 15 14 14 14 13 13 13 13
15 15 15 17 17 18 18 17 15 15 15 13 14 15 16 15 15 16 16 17 18 18 18 18 18 18 17 17 17 17 16 16 16 15 15 15 14 14 14 13 13 13 13 12
15 15 15 16 16 17 17 16 15 14 13 12 13 15 16 15 15 16 16 17 18 18 18 18 18 17 17 17 17 16 16 16 15 15 15 14 14 14 13 13 13 13 12 12
15 14 15 16 16 16 16 17 15 14 13 13 13 15 15 15 15 15 16 17 17 17 17 17 17 17 17 17 16 16 16 15 15 15 15 14 14 14 13 13 12 12 12 12
14 14 15 15 16 16 16 16 16 15 14 14 15 14 15 15 15 16 16 16 17 17 17 17 17 17 16 16 16 16 15 15 15 15 14 14 14 13 13 12 12 12 12 11
13 14 15 15 15 15 15 15 15 15 15 14 15 14 14 15 15 15 16 16 16 16 16 16 16 16 16 16 15 15 15 15 14 14 14 14 13 13 13 12 12 12 11 11
12 13 13 13 14 15 15 15 15 15 14 15 15 15 14 14 14 15 16 16 16 16 16 16 16 16 16 15 15 15 15 14 14 14 14 13 13 13 12 12 12 11 11 10
12 12 11 12 14 15 15 15 15 15 14 13 14 14 13 14 15 15 16 16 16 16 16 16 15 15 15 15 15 14 14 14 14 13 13 13 12 12 12 12 11 11 10 10
11 12 11 11 12 13 14 14 14 14 14 14 13 13 14 14 14 14 15 16 16 16 15 15 15 15 15 14 14 14 14 14 13 13 13 12 12 12 12 11 11 11 10 10
10 11 11 11 13 13 14 15 15 15 14 14 13 13 13 13 12 13 15 15 15 15 15 15 14 14 14 14 14 14 13 13 13 13 12 12 12 11 11 11 11 10 10 10
11 11 11 11 12 12 13 14 15 14 14 15 14 14 13 12 13 14 14 14 14 15 14 14 14 14 13 13 13 13 13 13 12 12 12 11 11 11 11 11 10 10 10 9
11 11 10 10 11 12 13 13 13 14 15 15 15 15 14 14 14 14 14 14 14 14 14 14 13 13 13 13 12 12 12 12 12 12 11 11 11 11 10 10 10 10 9 9
10 11 10 10 12 13 13 14 15 15 15 15 15 15 14 14 13 13 13 13 13 13 13 13 13 13 12 12 12 12 12 11 11 11 11 11 11 10 10 10 9 9 9 8
9 9 9 9 10 12 13 14 14 14 14 14 14 14 14 14 13 13 13 12 12 12 12 12 12 12 12 11 11 11 11 11 11 10 10 10 10 10 9 9 9 8 8 8
10 9 9 9 10 11 13 14 14 14 14 14 14 13 13 13 13 12 12 12 12 12 12 12 12 11 11 11 11 10 10 10 10 10 10 10 9 9 9 9 8 8 8 8
8 9 9 10 12 11 13 14 14 13 13 13 13 13 12 12 12 12 12 11 11 11 11 11 11 11 11 10 10 10 10 9 9 9 9 9 9 8 8 8 8 8 7 7
Wind_Speed
3 4 4 7 7 4 4 3 3 4 3 3 5 6 7 4 5 6 7 7 8 8 6 4 4 5 5 4 4 4 4 3 4 3 2 2 1 1 2 3 4 4 4 4
4 2 6 4 4 3 4 3 2 3 1 3 3 6 6 5 6 8 9 10 9 7 5 5 4 5 6 6 5 5 5 4 4 3 2 2 2 1 1 2 4 4 4 3
5 4 2 4 3 3 4 5 5 4 1 3 1 6 4 4 3 4 6 7 7 9 8 7 6 6 6 6 7 6 5 4 4 4 3 3 3 2 2 2 2 3 3 3
3 4 2 3 4 6 5 5 5 4 2 2 1 4 7 4 4 5 6 6 7 8 7 6 6 7 7 8 6 6 6 5 4 4 4 4 3 2 1 1 0 2 3 2
3 2 3 4 5 6 5 1 3 2 3 1 1 2 8 2 5 7 7 7 7 8 8 7 8 8 8 7 6 5 5 4 4 5 5 5 3 2 1 0 1 2 2 2
4 2 3 4 2 3 4 6 6 5 4 2 4 4 7 4 6 6 7 7 7 6 7 6 6 6 5 5 5 5 5 4 4 5 5 5 5 3 2 1 0 1 1 1
3 3 1 2 3 2 5 5 3 4 3 5 3 3 8 6 5 6 7 7 6 6 6 6 5 6 6 6 6 5 5 4 4 5 4 5 5 5 4 3 2 1 0 1
1 4 3 2 4 5 4 7 6 4 4 5 2 5 7 5 4 3 4 4 4 4 5 6 7 7 7 8 7 7 7 6 5 5 5 4 4 3 3 3 2 2 2 1
5 5 3 1 2 8 5 4 6 6 2 2 5 6 8 2 2 1 0 2 3 4 5 6 7 7 7 8 8 9 8 6 6 5 5 4 4 3 3 2 2 1 1 1
6 3 3 2 4 3 5 8 5 5 3 3 5 5 5 5 4 2 2 2 3 3 4 5 5 6 7 7 7 6 7 7 5 5 5 4 4 3 3 2 2 2 1 1
4 4 3 2 3 4 4 4 4 4 4 5 3 6 5 6 5 5 5 4 3 4 4 4 5 5 6 5 6 6 6 5 4 5 4 4 4 3 3 3 3 2 2 1
3 4 2 5 4 2 4 6 7 4 4 4 3 6 5 4 4 4 4 3 3 3 3 2 3 3 4 4 5 5 5 5 5 5 5 5 4 3 3 3 3 2 2 2
4 5 1 5 4 1 1 3 4 5 4 5 4 6 4 3 2 2 3 4 3 2 1 1 1 2 3 4 5 5 5 5 5 5 5 4 4 4 4 3 3 2 2 2
4 4 6 8 6 4 3 3 5 5 4 5 7 7 7 5 4 4 3 3 2 1 2 1 1 2 3 4 4 5 4 4 5 5 5 5 5 5 4 3 3 3 3 2
4 3 3 5 4 3 4 5 6 7 8 8 8 7 8 6 6 5 3 2 1 1 1 1 2 2 2 2 3 3 4 4 4 5 4 5 4 3 3 3 2 2 2 2
3 3 1 3 2 2 4 5 6 6 5 6 5 6 6 5 2 2 2 2 2 3 3 2 2 2 3 3 3 3 4 4 4 4 4 4 3 3 3 3 3 2 2 1
2 3 2 3 4 2 4 6 6 4 4 6 7 7 3 2 4 4 4 3 4 4 3 3 3 3 3 3 4 4 4 4 4 4 3 3 4 4 4 3 3 3 2 2
5 5 3 1 2 5 6 2 3 3 2 3 3 3 4 4 4 3 3 3 4 4 4 3 3 3 2 2 2 2 2 4 4 4 3 3 4 4 3 3 3 3 2 2
4 6 4 3 2 6 6 3 3 4 4 3 4 4 3 1 2 3 2 2 3 3 3 3 3 3 2 2 2 3 2 3 3 3 4 4 4 4 3 3 3 3 2 2
4 4 5 3 2 5 6 3 1 3 4 4 3 3 2 3 0 4 4 2 1 1 1 1 1 2 2 1 3 4 3 3 4 4 4 4 4 5 5 4 3 2 2 2
2 3 4 5 5 6 6 2 3 3 6 3 3 3 3 4 5 3 1 1 0 0 1 2 2 2 2 2 3 3 2 3 3 3 3 3 3 4 4 3 3 2 2 2
6 5 5 4 4 7 3 4 5 6 2 1 2 2 3 3 2 1 0 0 1 1 1 2 2 1 0 2 3 3 3 3 2 2 2 3 3 3 3 3 2 2 3 2
6 7 6 7 7 4 2 4 3 2 2 2 2 2 2 2 2 1 1 1 1 1 1 1 2 0 1 1 3 3 3 1 1 2 2 2 2 2 3 3 3 2 2 2
4 2 3 4 6 5 4 3 3 2 3 3 2 2 2 3 2 2 1 1 1 0 0 1 2 1 1 1 2 3 2 1 2 2 2 1 2 2 1 2 3 3 3 2
5 4 3 4 5 5 5 4 4 2 1 1 1 1 2 3 2 2 2 1 1 1 0 1 1 1 2 1 1 1 1 2 2 2 2 1 1 2 2 2 2 3 4 5
5 6 6 7 7 5 6 5 3 3 3 3 2 1 1 3 3 2 2 2 1 1 0 1 0 1 1 1 1 1 1 2 3 2 2 1 2 2 2 1 1 1 2 3
Wind_Direction
57 89 184 205 192 189 171 177 229 252 230 178 223 247 255 222 201 212 217 216 217 223 227 201 185 171 160 155 157 159 152 143 127 114 110 96 68 29 27 33 46 56 65 74
50 253 226 196 179 176 173 193 242 291 252 186 239 267 263 215 210 211 212 217 217 221 216 203 187 173 176 177 180 175 172 165 160 148 134 130 122 85 33 22 37 43 56 66
184 238 184 157 172 176 207 195 208 222 1 32 11 314 285 261 232 227 222 218 215 213 211 204 194 193 187 189 191 189 183 177 168 140 109 87 67 50 34 23 15 15 40 63
230 256 166 162 194 172 233 224 192 181 134 290 62 289 286 262 264 240 233 223 218 215 209 201 199 198 197 199 189 182 176 175 168 150 143 141 145 166 215 225 300 355 27 52
249 227 168 198 215 180 209 119 135 152 154 343 344 207 286 299 260 250 238 230 223 210 203 203 204 202 202 195 183 178 170 171 167 160 160 151 154 174 158 72 38 12 10 28
246 250 197 201 188 152 131 74 62 53 76 281 244 192 277 252 235 251 237 231 223 208 202 205 203 194 196 187 177 171 170 176 172 169 169 168 170 168 156 169 166 340 347 0
323 312 277 161 118 67 94 93 35 1 5 257 254 204 251 254 239 229 228 227 220 201 193 195 194 192 191 186 184 179 176 183 177 174 180 182 181 178 186 197 200 204 279 319
184 282 263 193 177 174 163 144 160 200 228 275 291 236 255 263 274 252 227 212 198 193 197 201 204 200 194 192 187 185 190 192 183 184 191 188 180 181 197 201 192 197 218 234
179 249 286 229 182 142 137 163 165 141 167 258 279 286 301 272 325 346 161 156 192 204 207 210 209 201 193 194 195 192 192 192 190 193 188 184 183 187 199 202 184 189 215 209
165 220 285 297 86 56 137 143 109 127 165 255 289 280 262 275 268 276 264 240 237 222 223 222 211 204 199 196 193 186 187 192 193 189 189 189 189 192 192 178 179 183 197 173
151 170 294 14 175 185 112 111 117 126 154 167 256 272 243 240 241 227 241 245 234 219 225 228 221 207 197 187 182 181 184 183 181 183 183 180 185 177 167 174 187 185 181 169
143 137 228 263 266 193 167 166 151 161 213 183 196 264 283 256 256 232 248 258 243 222 224 234 221 193 179 184 184 183 186 187 188 181 177 183 179 170 174 190 200 187 182 185
134 123 99 338 340 18 141 161 156 139 135 167 189 260 309 348 333 275 251 262 254 237 225 215 185 184 191 193 191 189 189 192 185 174 175 179 183 186 196 204 200 188 183 183
118 129 173 203 219 210 223 200 165 149 172 206 220 244 291 304 290 282 275 272 265 234 221 203 206 217 205 197 192 189 191 187 176 171 175 185 196 197 199 201 194 192 181 176
105 159 215 232 235 210 220 229 200 196 200 204 230 229 253 258 249 251 253 258 245 261 267 225 215 222 209 190 188 187 185 179 172 171 182 195 197 185 177 177 179 177 174 182
84 149 162 284 264 227 245 253 221 215 215 219 233 254 256 264 271 268 262 240 241 248 242 231 223 211 206 199 194 189 187 180 163 172 194 190 173 168 173 180 171 163 169 175
121 128 121 273 302 356 267 244 211 206 207 193 218 238 259 279 266 250 240 229 234 242 232 218 221 220 221 210 194 196 192 163 158 175 185 180 174 173 180 174 161 174 185 177
150 137 143 233 15 239 248 252 193 191 242 216 230 252 234 238 266 272 237 220 234 236 229 219 213 216 222 203 182 167 149 156 164 175 183 182 171 176 177 168 177 187 177 182
159 143 133 144 231 278 289 265 187 187 264 240 228 250 263 296 19 325 293 254 235 231 221 216 205 190 177 171 163 140 141 154 162 182 190 188 175 174 173 182 194 189 175 189
80 110 126 142 189 244 256 268 222 132 269 271 214 224 225 111 80 275 299 312 286 282 190 163 145 129 135 166 152 145 158 160 188 202 198 189 178 177 184 194 198 191 184 201
93 95 149 174 214 257 262 277 109 163 243 259 200 207 181 187 217 246 306 337 330 28 109 124 123 136 178 154 139 156 168 205 216 198 182 181 181 186 187 187 180 169 173 177
180 172 187 162 197 251 254 141 180 219 237 214 200 196 196 220 257 288 290 339 24 49 72 114 125 155 173 137 145 164 211 228 198 161 171 186 192 189 174 169 171 164 163 166
199 193 189 191 213 244 226 218 247 216 230 240 221 227 194 209 246 262 278 319 8 43 68 97 126 112 350 169 167 191 235 219 156 160 194 206 193 185 177 174 174 170 170 178
258 186 172 239 263 266 267 276 287 246 249 263 233 203 184 211 221 237 258 281 308 328 103 111 116 126 283 268 222 221 228 172 154 182 216 210 191 193 179 174 175 180 194 204
232 180 194 248 272 297 287 256 249 261 274 288 327 153 180 178 203 205 202 218 251 277 58 120 146 188 242 263 269 266 196 156 159 187 209 206 199 197 195 193 199 206 217 212
205 189 193 230 229 214 251 254 235 233 244 230 224 244 188 172 198 214 210 200 187 196 116 95 133 207 250 260 272 276 195 165 166 190 218 212 209 205 198 206 283 283 263 271
Height
1509 1515 1520 1519 1518 1520 1523 1526 1528 1525 1520 1523 1525 1524 1521 1519 1520 1521 1521 1522 1524 1525 1527 1529 1530 1532 1533 1534 1535 1535 1536 1536 1536 1536 1537 1537 1537 1537 1537 1537 1537 1536 1536 1536
1515 1518 1513 1513 1515 1518 1521 1526 1527 1524 1520 1522 1525 1524 1519 1518 1518 1518 1518 1520 1521 1523 1525 1527 1528 1530 1531 1532 1533 1534 1535 1535 1536 1536 1537 1537 1537 1537 1537 1536 1536 1536 1536 1535
1515 1513 1510 1512 1515 1519 1521 1524 1524 1525 1522 1522 1525 1526 1520 1516 1516 1516 1517 1517 1519 1520 1522 1524 1526 1528 1529 1530 1532 1533 1534 1534 1535 1536 1536 1536 1536 1536 1536 1536 1536 1535 1535 1535
1512 1509 1509 1512 1514 1516 1523 1515 1518 1521 1528 1534 1529 1540 1523 1518 1516 1514 1514 1515 1515 1517 1519 1521 1523 1525 1527 1528 1530 1531 1532 1533 1534 1535 1535 1535 1535 1535 1535 1535 1535 1535 1534 1534
1511 1508 1509 1512 1511 1512 1515 1513 1517 1521 1527 1534 1533 1539 1529 1519 1517 1513 1511 1512 1512 1514 1516 1518 1521 1523 1525 1526 1528 1529 1531 1532 1533 1534 1534 1535 1535 1535 1534 1534 1534 1534 1534 1533
1508 1505 1506 1507 1507 1508 1511 1517 1522 1529 1534 1543 1535 1538 1533 1521 1514 1510 1508 1508 1509 1511 1513 1516 1518 1520 1522 1524 1526 1527 1529 1530 1531 1532 1533 1533 1534 1534 1533 1533 1533 1533 1533 1532
1511 1507 1504 1504 1508 1510 1514 1527 1542 1544 1550 1546 1533 1534 1528 1511 1507 1506 1505 1505 1506 1508 1510 1513 1515 1517 1519 1521 1523 1525 1526 1528 1529 1530 1531 1532 1532 1532 1532 1532 1532 1531 1531 1531
1519 1519 1506 1504 1506 1512 1515 1523 1541 1548 1551 1545 1534 1534 1519 1506 1504 1503 1502 1503 1505 1506 1508 1510 1512 1514 1516 1518 1520 1522 1524 1525 1527 1528 1529 1530 1530 1530 1531 1531 1530 1530 1530 1530
1518 1517 1504 1502 1502 1507 1516 1522 1523 1536 1540 1544 1538 1528 1513 1504 1503 1502 1502 1502 1503 1504 1506 1508 1510 1512 1513 1515 1517 1519 1521 1523 1524 1525 1527 1527 1528 1528 1529 1529 1529 1529 1528 1528
1508 1515 1507 1504 1503 1506 1509 1517 1528 1536 1544 1548 1538 1531 1523 1508 1505 1503 1502 1501 1502 1503 1505 1506 1508 1509 1511 1513 1515 1517 1519 1520 1522 1523 1524 1525 1526 1526 1527 1527 1527 1527 1527 1526
1505 1514 1512 1508 1508 1511 1514 1518 1524 1533 1536 1545 1545 1533 1509 1506 1503 1502 1501 1501 1501 1502 1503 1505 1506 1507 1509 1511 1513 1515 1517 1518 1520 1521 1522 1523 1524 1524 1524 1524 1524 1524 1524 1524
1505 1513 1518 1512 1505 1504 1506 1512 1521 1530 1534 1538 1541 1531 1503 1502 1500 1500 1500 1500 1500 1501 1502 1503 1504 1506 1507 1509 1510 1512 1514 1516 1517 1519 1520 1521 1521 1522 1522 1522 1522 1522 1522 1522
1505 1513 1523 1521 1517 1509 1509 1510 1514 1521 1530 1538 1539 1526 1502 1500 1499 1499 1499 1498 1499 1499 1501 1502 1503 1504 1505 1506 1508 1509 1511 1513 1514 1516 1517 1518 1518 1519 1519 1519 1519 1519 1520 1519
1501 1511 1517 1521 1516 1510 1510 1509 1512 1518 1528 1531 1527 1517 1506 1502 1500 1498 1498 1497 1497 1498 1499 1500 1501 1502 1503 1504 1505 1507 1508 1510 1512 1513 1514 1514 1515 1516 1516 1516 1516 1517 1517 1516
1502 1510 1509 1508 1505 1505 1506 1506 1508 1512 1513 1518 1513 1511 1504 1500 1498 1496 1496 1496 1496 1496 1497 1497 1498 1500 1501 1502 1503 1504 1506 1507 1508 1510 1510 1511 1512 1512 1513 1513 1513 1514 1514 1514
1504 1508 1508 1508 1505 1505 1506 1504 1504 1505 1506 1507 1506 1505 1497 1496 1495 1494 1494 1494 1494 1494 1495 1496 1496 1497 1498 1499 1500 1502 1503 1504 1505 1506 1507 1508 1509 1509 1509 1510 1510 1510 1511 1511
1507 1509 1514 1516 1509 1506 1510 1502 1501 1501 1500 1501 1504 1500 1495 1495 1494 1492 1492 1492 1492 1492 1492 1493 1494 1495 1496 1497 1498 1499 1500 1501 1502 1503 1504 1505 1506 1506 1506 1507 1507 1507 1507 1507
1506 1510 1516 1518 1514 1517 1505 1495 1495 1497 1497 1496 1495 1494 1493 1492 1491 1491 1491 1491 1490 1491 1491 1491 1492 1493 1494 1495 1496 1497 1497 1498 1499 1500 1501 1501 1502 1502 1503 1503 1503 1504 1504 1504
1500 1507 1516 1521 1520 1513 1501 1495 1495 1497 1496 1493 1493 1491 1491 1491 1490 1490 1489 1489 1489 1489 1489 1490 1490 1491 1492 1493 1494 1494 1495 1496 1496 1497 1497 1498 1499 1499 1500 1500 1500 1500 1501 1501
1502 1504 1514 1520 1517 1515 1501 1492 1490 1494 1497 1490 1490 1489 1490 1490 1494 1491 1488 1488 1487 1487 1488 1488 1489 1489 1490 1491 1492 1492 1492 1493 1493 1494 1495 1495 1496 1496 1496 1496 1497 1497 1497 1497
1506 1509 1513 1516 1516 1508 1495 1490 1492 1502 1498 1488 1487 1487 1488 1489 1490 1488 1487 1486 1486 1486 1486 1486 1487 1488 1488 1489 1489 1490 1490 1490 1491 1491 1492 1492 1492 1493 1493 1493 1493 1494 1494 1494
1504 1509 1512 1514 1515 1507 1490 1490 1493 1491 1486 1486 1485 1486 1486 1486 1486 1486 1485 1485 1484 1484 1484 1485 1485 1486 1486 1487 1487 1487 1487 1488 1488 1489 1489 1489 1489 1490 1490 1490 1490 1490 1490 1490
1500 1498 1500 1501 1499 1489 1487 1487 1486 1486 1485 1484 1484 1484 1484 1484 1484 1484 1484 1483 1483 1483 1483 1483 1484 1484 1485 1485 1485 1485 1485 1485 1485 1486 1486 1486 1486 1486 1486 1487 1487 1487 1487 1487
1494 1492 1494 1495 1489 1486 1485 1484 1484 1484 1484 1483 1483 1482 1483 1482 1482 1482 1483 1482 1482 1482 1482 1482 1482 1482 1483 1483 1483 1483 1482 1482 1482 1483 1483 1483 1483 1483 1483 1483 1483 1483 1483 1483
1490 1491 1492 1491 1486 1484 1482 1482 1482 1482 1482 1481 1480 1480 1481 1481 1480 1481 1481 1481 1481 1481 1481 1481 1481 1481 1481 1481 1481 1480 1480 1480 1480 1480 1480 1480 1479 1479 1479 1480 1480 1480 1480 1480
1486 1486 1488 1486 1481 1481 1480 1480 1480 1479 1479 1479 1478 1478 1478 1479 1479 1479 1479 1479 1479 1479 1479 1479 1479 1479 1479 1479 1479 1478 1478 1477 1477 1477 1476 1476 1476 1476 1476 1476 1477 1477 1477 1477